sat.trackr.live / text

‹ back to catalog

BEIDOU-3 M19 (C41)

NORAD 44864 · 2019-090A

PAYLOAD ACTIVE UNKNOWN

§ Identity

Operator
Country
PRC
Launch date
2019-12-16
Launch site
XICLF
Launch vehicle
Mass (kg)
RCS (m²)

Purposes: nav

External: N2YO · Heavens-Above · Gunter

§ Orbital elements

Epoch: 2026-09-17T19:43:38.708256Z

Period
773.23 min
Inclination
56.6443°
Eccentricity
0.0015783
Mean motion
1.86231606 rev/d
Perigee alt
21,483.9 km
Apogee alt
21,572.0 km
Semi-major
27,906.1 km
B*
0.0000e+0
RAAN
59.7336°
Arg perigee
291.7296°
Mean anomaly
68.9891°
Rev number
4,596

§ Raw data

BEIDOU-3 M19 (C41)1 44864U 19090A   26260.82197579 -.00000026  00000+0  00000+0 0  99962 44864  56.6443  59.7336 0015783 291.7296  68.9891  1.86231606 45967

JSON: /api/v1/satellites/44864 · /tle

For live sub-satellite position, see the globe view (requires WebGL).

§ Visibility from observer

Set your observer location to see the next 7 days of passes ≥ 10°. The values pass through the URL so the page stays shareable.

No JS? Fill the form by hand. The geolocation button needs JavaScript.